This demonstration page uses our WeatherBlox Daily Observations layout. Learn more.

Left ArrowRight Arrow

44.94441, -93.09327

Hourly Observations for December 6, 2022

Temp ( °F °C ) Dew Point ( °F °C ) Humidity (%) Winds ( mph kmh ) Pressure ( in mb ) Visibility ( mi km ) Precip ( " mm )
12:53 am 00:53 Clear 17 -8.3 7 -13.9 64 64 Calm 30.11 1020 10 16 0.00 0.00
1:53 am 01:53 Clear 16 -8.9 7 -13.9 67 67 NW 5 7 30.12 1020 10 16 0.00 0.00
2:53 am 02:53 Clear 14 -10 7 -13.9 73 73 Calm 30.10 1019 10 16 0.00 0.00
3:53 am 03:53 Clear 14 -10 6 -14.4 70 70 NNW 5 7 30.11 1020 10 16 0.00 0.00
4:53 am 04:53 Clear 13 -10.6 6 -14.4 73 73 VRB 5 7 30.10 1019 10 16 0.00 0.00
5:53 am 05:53 Clear 13 -10.6 6 -14.4 73 73 Calm 30.10 1019 10 16 0.00 0.00
6:53 am 06:53 Mostly Clear 14 -10 6 -14.4 70 70 Calm 30.12 1020 10 16 0.00 0.00
7:53 am 07:53 Sunny 13 -10.6 6 -14.4 73 73 Calm 30.10 1019 10 16 0.00 0.00
8:53 am 08:53 Sunny 13 -10.6 7 -13.9 77 77 ESE 3 6 30.09 1019 10 16 0.00 0.00
9:53 am 09:53 Mostly Sunny 16 -8.9 8 -13.3 70 70 E 3 6 30.10 1019 10 16 0.00 0.00
10:53 am 10:53 Cloudy 19 -7.2 10 -12.2 67 67 Calm 30.09 1019 10 16 0.00 0.00
11:53 am 11:53 Mostly Cloudy 24 -4.4 14 -10 65 65 SSE 7 11 30.06 1018 10 16 0.00 0.00
12:53 pm 12:53 Partly Cloudy 26 -3.3 15 -9.4 63 63 S 7 11 30.04 1017 10 16 0.00 0.00
1:53 pm 13:53 Sunny 28 -2.2 17 -8.3 63 63 SSE 8 13 30.02 1017 10 16 0.00 0.00
2:53 pm 14:53 Sunny 30 -1.1 17 -8.3 58 58 SSE 5 7 30.03 1017 10 16 0.00 0.00
3:53 pm 15:53 Sunny 29 -1.7 17 -8.3 61 61 SW 5 7 30.05 1018 10 16 0.00 0.00
4:53 pm 16:53 Clear 27 -2.8 17 -8.3 66 66 S 3 6 30.06 1018 10 16 0.00 0.00
5:53 pm 17:53 Clear 26 -3.3 17 -8.3 68 68 Calm 30.07 1018 10 16 0.00 0.00
6:53 pm 18:53 Clear 23 -5 18 -7.8 81 81 Calm 30.08 1019 10 16 0.00 0.00
7:53 pm 19:53 Mostly Cloudy 21 -6.1 17 -8.3 84 84 Calm 30.11 1020 10 16 0.00 0.00
8:53 pm 20:53 Cloudy 22 -5.6 16 -8.9 77 77 NW 5 7 30.13 1020 10 16 0.00 0.00
9:53 pm 21:53 Cloudy 21 -6.1 17 -8.3 84 84 SSE 3 6 30.14 1021 10 16 0.00 0.00
10:53 pm 22:53 Mostly Clear 22 -5.6 18 -7.8 84 84 NNE 3 6 30.16 1021 10 16 0.00 0.00
11:53 pm 23:53 Mostly Clear 21 -6.1 17 -8.3 84 84 Calm 30.16 1021 10 16 0.00 0.00

Powered by AerisWeather